Probability
0 0 0 0 0 0 0 0 0 0 0 0 0 0 0 0 0 0 0 0 0 0 0 0 0 0 0 0 0 0 0 0 0 0 0 0 0 0 0 0 0 0 0
0 0 0 0 0 0 0 0 0 0 0 0 0 0 0 0 0 0 0 0 0 0 0 0 0 0 0 0 0 0 0 0 0 0 0 0 0 0 0 0 0 0 0
0 0 0 0 0 0 0 0 0 0 0 0 0 0 0 0 0 0 0 0 0 0 0 0 0 0 0 0 0 0 0 0 0 0 0 0 0 0 0 0 0 0 0
0 0 0 0 0 0 0 0 0 0 0 0 0 0 0 0 0 0 0 0 0 0 0 0 0 0 0 0 0 0 0 0 0 0 0 0 0 0 0 0 0 0 0
0 0 0 0 0 0 0 0 0 0 0 0 0 0 0 0 0 0 0 0 0 0 0 0 0 0 0 0 0 0 0 0 0 0 0 0 0 0 0 0 0 0 0
0 0 0 0 0 0 0 0 0 0 0 0 0 0 0 0 0 0 0 0 0 0 0 0 0 0 0 0 0 0 0 0 0 0 0 0 0 0 0 0 0 0 0
0 0 0 0 0 0 0 0 0 0 0 0 0 0 0 0 0 0 0 0 0 0 0 0 0 0 0 0 0 0 0 0 0 0 0 0 0 0 0 0 0 0 0
0 0 0 0 0 0 0 0 0 0 0 0 0 0 0 0 0 0 0 0 0 0 0 0 0 0 0 0 0 0 0 0 0 0 0 0 0 0 0 0 0 0 0
0 0 0 0 0 0 0 0 0 0 0 0 0 0 0 0 0 0 0 0 0 0 0 0 0 0 0 0 0 0 0 0 0 0 0 0 0 0 0 0 0 0 0
0 0 0 0 0 0 0 0 0 0 0 0 0 0 0 0 0 0 0 0 0 0 0 0 0 0 0 0 0 0 0 0 0 0 0 0 0 0 0 0 0 0 0
0 0 0 0 0 0 0 0 0 0 0 0 0 0 0 0 0 0 0 0 0 0 0 0 0 0 0 0 0 0 0 0 0 0 0 0 0 0 0 0 0 0 0
0 0 0 0 0 0 0 0 0 0 0 0 0 0 0 0 0 0 0 0 0 0 0 0 0 0 0 0 0 0 0 0 0 0 0 0 0 0 0 0 0 0 0
1 0 0 0 0 0 0 0 0 0 0 0 0 0 0 0 0 0 0 0 0 0 0 0 0 0 0 0 0 0 0 0 0 0 0 0 0 0 0 0 0 0 0
3 1 0 0 0 0 0 0 0 0 0 0 0 0 0 0 0 0 0 0 0 0 0 0 0 0 0 0 0 0 0 0 0 0 0 0 0 0 0 0 0 0 0
3 1 0 0 0 0 0 0 0 0 0 0 0 0 0 0 0 0 0 0 0 0 0 0 0 0 0 0 0 0 0 0 0 0 0 0 0 0 0 0 0 0 0
3 2 1 0 0 0 0 0 0 0 0 0 0 0 0 0 0 0 0 0 0 0 0 0 0 0 0 0 0 0 0 0 0 0 0 0 0 0 0 0 0 0 0
3 3 2 1 0 0 0 0 0 0 0 0 0 0 0 0 0 0 0 0 0 0 0 0 0 0 0 0 0 0 0 0 0 0 0 0 0 0 0 0 0 0 0
2 3 3 2 1 0 0 0 0 0 0 0 0 0 0 0 0 0 0 0 0 0 0 0 0 0 0 0 0 0 0 0 0 0 0 0 0 0 0 0 0 0 0
1 1 2 2 1 0 0 0 0 0 0 0 0 0 0 0 0 0 0 0 0 0 0 0 0 0 0 0 0 0 0 0 0 0 0 0 0 0 0 0 0 0 0
1 0 1 1 1 0 0 0 0 0 0 0 0 0 0 0 0 0 0 0 0 0 0 0 0 0 0 0 0 0 0 0 0 0 0 0 0 0 0 0 0 0 0
2 1 1 1 0 0 0 0 0 0 0 0 0 0 0 0 0 0 0 0 0 0 0 0 0 0 0 0 0 0 0 0 0 0 0 0 0 0 0 0 0 0 0
3 3 2 2 1 0 0 0 0 0 0 0 0 0 0 0 0 0 0 0 0 0 0 0 0 0 0 0 0 0 0 0 0 0 0 0 0 0 0 0 0 0 0
3 3 3 3 2 1 0 0 0 0 0 0 0 0 0 0 0 0 0 0 0 0 0 0 0 0 0 0 0 0 0 0 0 0 0 0 0 0 0 0 0 0 0
3 3 3 3 2 1 0 0 0 0 0 0 0 0 0 0 0 0 0 0 0 0 0 0 0 0 0 0 0 0 0 0 0 0 0 0 0 0 0 0 0 0 0
2 4 4 3 3 1 0 0 0 0 0 0 0 0 0 0 0 0 0 0 0 0 0 0 0 0 0 0 0 0 0 0 0 0 0 0 0 0 0 0 0 0 0
2 4 4 3 3 2 1 0 0 0 0 0 0 0 0 0 0 0 0 0 0 0 0 0 0 0 0 0 0 0 0 0 0 0 0 0 0 0 0 0 0 0 0
Wind_Speed
7 9 14 15 16 16 15 14 14 14 14 14 14 14 14 13 13 13 14 13 13 13 14 14 14 14 13 13 13 12 12 12 11 11 11 10 10 11 10 10 9 6 10
12 12 15 15 16 16 15 14 14 14 14 14 14 13 13 13 13 13 13 12 12 13 13 13 13 13 12 12 11 11 10 9 9 8 7 7 8 9 9 8 8 5 8
14 12 13 14 15 16 15 14 14 14 14 13 14 13 13 13 13 12 12 12 12 11 11 12 12 11 11 10 10 9 8 8 8 7 6 3 3 6 7 6 6 7 6
14 12 12 13 15 16 15 14 14 14 13 13 13 13 13 12 12 12 12 11 11 11 10 10 10 9 9 8 8 7 7 7 7 6 3 2 1 4 5 5 5 5 5
12 10 11 14 15 16 15 14 14 14 13 13 13 13 13 12 11 11 11 10 10 10 9 9 9 8 7 6 6 5 6 6 6 5 2 1 1 2 3 3 3 3 3
11 9 11 14 15 15 15 15 14 14 13 13 13 12 12 11 11 11 10 10 9 9 8 8 7 6 5 4 4 4 5 5 5 3 2 1 0 1 2 2 2 2 2
10 9 11 13 14 14 14 14 14 13 13 12 12 11 11 11 11 10 10 9 9 8 7 7 6 5 4 3 2 3 4 5 2 2 1 1 1 1 0 1 1 1 2
12 10 10 12 13 13 13 13 12 12 12 12 11 11 11 11 10 10 9 9 8 7 6 6 5 4 3 2 1 2 3 3 2 2 2 2 2 2 1 1 2 2 3
10 9 8 8 9 11 11 11 11 10 10 10 10 10 10 9 9 8 8 8 8 7 6 5 4 3 3 2 1 2 3 3 2 1 2 2 4 3 2 2 3 3 4
8 8 8 7 7 7 7 10 10 10 10 10 9 9 9 8 8 7 7 7 7 7 6 5 4 4 3 3 3 3 4 3 2 2 2 3 5 4 4 4 4 5 5
8 8 8 8 7 6 6 8 9 9 9 9 8 9 8 5 5 5 6 7 6 6 6 5 5 5 4 4 4 4 3 1 2 2 2 5 6 5 5 5 5 5 6
11 10 8 8 8 7 6 5 4 5 5 5 5 6 4 4 4 5 6 8 7 6 6 6 6 5 3 2 3 4 1 2 2 2 3 6 6 6 6 6 6 7 7
11 10 9 9 8 8 5 5 3 3 3 4 6 6 4 4 3 3 3 3 4 4 3 4 3 2 2 2 2 2 2 2 2 2 3 5 6 7 7 7 7 6 6
9 9 9 9 8 8 6 5 5 4 4 4 5 6 5 3 3 3 3 3 3 2 3 3 2 3 3 3 3 3 3 2 2 2 3 5 6 7 8 7 7 7 6
9 9 9 10 10 8 7 6 6 5 5 5 5 6 6 5 5 4 4 4 4 3 3 3 3 3 3 3 3 3 3 3 3 3 2 5 6 7 8 9 8 8 7
7 8 8 9 9 9 8 6 6 6 5 5 5 6 7 6 5 5 5 4 4 4 4 4 4 4 3 3 3 3 4 3 3 3 3 3 5 6 8 8 8 8 8
6 6 7 8 8 8 8 8 6 5 5 5 5 6 7 7 6 5 5 5 5 4 4 3 4 3 3 3 3 4 3 3 3 3 3 2 3 4 5 7 7 7 7
4 5 5 5 6 7 7 6 5 5 5 5 5 5 7 7 7 6 5 5 5 4 4 4 3 3 3 3 2 3 3 2 3 3 3 2 2 2 3 4 4 5 6
4 4 4 4 5 6 6 5 5 4 5 4 4 4 6 6 6 5 5 4 5 4 4 4 4 3 3 3 3 3 3 3 3 3 3 3 2 2 2 1 2 3 5
2 3 4 3 3 3 3 3 3 3 4 4 4 5 6 5 6 5 4 4 4 4 4 4 4 3 3 3 2 3 3 3 3 3 3 3 2 2 2 2 2 2 3
1 1 2 2 2 2 2 3 3 4 3 3 4 5 6 6 6 5 4 4 4 4 5 5 4 4 3 2 1 2 3 3 3 3 3 3 2 2 2 1 1 1 2
1 1 1 2 2 2 3 3 2 2 2 2 2 4 5 6 6 6 6 5 5 4 5 5 4 3 3 3 3 2 2 3 2 3 2 3 3 2 1 2 1 1 1
2 0 1 1 1 1 1 0 1 1 0 0 1 2 3 4 5 5 6 6 5 6 6 6 6 6 5 4 4 4 3 4 2 2 2 2 2 2 2 1 1 1 1
2 1 1 0 1 0 1 1 1 1 2 3 2 2 1 2 3 4 5 6 5 5 6 6 6 6 5 5 4 5 4 3 3 2 2 1 1 2 2 1 1 2 2
2 2 2 2 2 1 1 1 1 1 1 1 1 1 1 1 2 2 3 4 5 5 5 5 5 6 5 6 4 3 4 4 4 4 4 2 1 2 2 2 2 2 2
5 4 4 4 4 3 2 1 0 1 1 1 1 1 2 2 2 2 2 2 3 4 5 5 5 6 5 5 5 4 3 3 3 4 5 4 3 2 3 3 2 2 1
Wind_Direction
156 162 158 155 149 145 141 137 133 132 128 125 122 118 115 113 113 111 110 107 103 100 98 94 91 90 88 88 86 84 82 78 74 70 69 70 75 76 72 68 64 54 63
150 158 155 155 151 147 143 139 136 136 134 131 128 125 121 119 116 115 112 109 106 102 100 97 92 89 87 87 87 86 83 76 67 65 67 61 70 76 74 69 65 62 62
146 153 153 154 150 147 145 143 140 139 136 134 131 129 127 124 120 118 116 113 108 106 105 101 97 93 90 88 87 85 78 67 57 56 58 41 53 75 75 70 63 59 57
146 151 153 152 149 148 147 147 144 142 141 138 135 132 131 129 126 123 120 116 113 111 110 106 102 98 94 91 86 78 67 57 49 47 48 40 34 75 72 65 58 56 48
143 148 149 150 150 150 149 149 147 145 145 143 140 137 136 135 132 129 126 122 119 117 115 112 109 105 100 94 85 70 55 45 41 43 36 37 30 68 66 59 53 48 36
141 144 149 151 152 152 152 152 151 149 149 147 145 143 142 141 138 135 132 129 126 123 121 119 116 112 108 99 81 58 41 34 38 30 21 11 293 91 71 61 51 38 20
140 143 152 151 152 154 156 155 154 154 153 152 150 148 145 144 142 142 141 138 135 133 131 129 127 124 121 111 79 45 29 20 33 17 2 329 263 196 84 57 22 348 337
144 146 151 151 152 155 158 158 158 158 158 156 155 153 151 149 150 150 151 150 148 146 143 143 143 144 148 143 62 6 4 2 12 354 327 291 267 242 248 282 303 310 313
143 146 149 152 155 157 158 159 161 161 161 159 158 157 156 155 157 157 157 159 162 163 163 164 166 171 186 207 267 309 327 335 346 304 294 274 268 252 260 274 290 296 301
144 150 152 153 154 156 158 163 164 164 163 162 161 159 159 160 160 161 164 169 173 174 176 182 189 201 219 238 267 288 302 320 321 302 283 267 265 255 264 278 285 291 293
155 160 159 160 159 158 161 169 167 168 170 166 166 168 164 163 164 169 179 183 187 188 189 196 207 219 228 248 267 276 289 288 293 284 269 267 264 262 270 280 283 284 285
170 172 170 169 168 166 172 164 167 171 172 171 170 173 172 172 181 183 191 195 196 198 203 212 220 225 230 253 272 277 269 271 280 276 273 270 263 266 274 280 282 281 281
174 175 177 175 174 173 171 165 170 170 172 178 180 180 179 179 186 186 183 196 201 204 212 226 229 228 227 233 247 253 252 258 259 269 278 272 265 270 276 281 284 283 283
172 182 181 178 177 180 174 175 177 178 182 187 191 187 180 182 189 190 192 194 195 198 204 215 220 228 234 237 237 246 251 247 250 259 272 271 265 267 276 281 286 286 286
178 182 183 181 182 182 179 183 185 189 191 193 193 195 189 187 192 194 198 197 201 201 203 212 219 225 231 240 241 237 243 245 252 259 274 278 271 266 274 281 285 287 288
190 190 184 182 185 182 184 188 189 192 193 194 198 198 194 193 192 193 196 198 203 203 205 208 214 219 230 232 242 241 240 243 248 257 262 280 280 271 272 277 283 287 290
188 185 185 187 184 184 188 191 190 190 189 195 200 200 197 195 195 195 195 200 205 203 203 206 215 218 229 230 239 243 242 243 243 250 257 262 276 278 270 273 279 287 291
180 183 186 187 187 192 192 189 188 189 191 198 198 197 200 200 197 194 198 206 201 194 195 201 207 215 229 231 241 249 248 247 247 253 257 261 264 273 279 276 278 283 288
183 175 176 182 189 199 196 192 190 188 195 199 198 199 202 202 200 197 202 206 196 196 201 206 208 202 217 231 244 256 258 255 254 248 252 256 255 257 260 281 280 284 286
177 174 175 177 181 189 192 191 193 198 200 199 201 205 201 203 203 201 205 206 197 202 210 208 211 208 210 218 241 267 266 258 251 242 243 246 246 244 248 255 274 294 294
95 131 162 182 197 179 181 197 203 211 208 207 209 207 205 204 202 202 209 207 202 209 215 208 206 210 220 191 217 284 284 260 252 251 240 236 240 242 237 238 246 265 298
104 165 168 180 186 198 216 208 209 208 211 210 212 215 212 211 208 206 207 210 207 211 216 213 209 210 218 192 188 220 281 297 272 251 239 228 232 235 232 229 228 233 260
33 54 204 197 200 224 269 119 69 67 33 213 245 237 234 226 221 217 213 213 212 210 217 218 212 217 227 220 204 198 217 239 274 271 244 233 228 226 228 229 220 233 246
351 354 17 86 86 38 82 88 137 192 226 238 259 248 266 241 238 227 220 218 219 219 222 221 217 218 218 231 228 226 227 200 219 270 265 247 244 238 236 227 238 249 251
8 23 18 29 39 39 97 151 187 234 257 307 356 338 302 276 258 256 239 226 225 229 230 223 217 218 220 227 226 226 238 238 228 237 258 247 245 236 227 230 234 246 250
19 22 27 33 27 21 25 45 205 261 301 348 314 289 299 302 292 279 278 261 243 236 234 229 225 220 221 225 229 224 217 222 227 230 249 255 247 234 223 229 232 245 259